Mercer, WI (54547)

1:12 AM CDT on August 24, 2017 (GMT -0500)
Mercer Public Library, Iron County, WI | | Change Station

Elev 1598 ft 46.17 °N, 90.06 °W | Updated 0 second ago

Mostly Cloudy
Mostly Cloudy
48.9 °F
Feels Like 49 °F
N
0.0
Wind Variable Wind from WNW
Gusts 0.0 mph

Today
High -- | Low -- °F
--% Chance of Precip.
Yesterday
High -- | Low -- °F
Precip. -- in
Pressure 30.12 in
Visibility 10.0 miles
Clouds Scattered Clouds 12000 ft
Windchill 49 °F
Dew Point 48 °F
Humidity 96%
Rainfall 0.00 in
Snow Depth Not available.
6:11 AM 7:53 PM
Waxing Crescent, 8% visible
METAR KD25 240555Z AUTO 00000KT 10SM SCT120 08/08 A3012 RMK AO2 T00760076 10135 20048 401720048
Pressure 30.12 in
Visibility 10.0 miles
Clouds Scattered Clouds 12000 ft
Windchill 49 °F
Dew Point 48 °F
Humidity 96%
Rainfall 0.00 in
Snow Depth Not available.
6:11 AM 7:53 PM
Waxing Crescent, 8% visible
METAR KD25 240555Z AUTO 00000KT 10SM SCT120 08/08 A3012 RMK AO2 T00760076 10135 20048 401720048

Get Severe Weather Alerts

Thanks for signing up!

Be on the lookout for a verification email in your inbox.

You'll start receiving the daily forecast at 6 AM.

×

10-Day Weather Forecast

Almanac

Astronomy

Aug. 24, 2017 Rise Set
Actual Time
Civil Twilight
Nautical Twilight
Astronomical Twilight
Moon
Length of Visible Light
Length of Day
Tomorrow will be .
, % of the Moon is Illuminated

Today's Extremes

State Highs State Lows

Community

WunderPhotos

Category 6

Welcome to Category 6. This is the collective home for Weather Underground's featured writeups by Dr. Jeff Masters (right), Bob Henson (left), Chris Burt, and other regular contributors.

Nearby

Air Quality

  Air Quality AQ Index Pollutant
Not available.

Snow Depth

Station Depth Elevation

Earthquake Activity

City Distance Mag. Time & Date
Minimum magnitude displayed is 2.5.

Coastal Water Temperatures

Place Temperature

Stations

Nearby Weather Stations

Station Location Temp. Windchill Dew Point Humidity Wind Precip. Elev Updated Type
                   

Watches & Warnings

There are currently no watches in effect.